Meteo pe oră la Bolshoe Ozerevo

Astăzi, 8 Mai, Sâmbătă

Timp Temperatura Precipitaţii Vânt Presiune Umiditate
00:00 +5°C° 0.1 mm 1 m/s 748 mmHg 92%
01:00 +4°C° 0.1 mm 0 m/s 747 mmHg 92%
02:00 +4°C° 0.1 mm 0 m/s 747 mmHg 93%
03:00 +4°C° 0.4 mm 0 m/s 747 mmHg 94%
04:00 +5°C° 0.4 mm 1 m/s 747 mmHg 94%
05:00 +5°C° 0.4 mm 1 m/s 746 mmHg 95%
06:00 +5°C° 0.3 mm 1 m/s 747 mmHg 95%
07:00 +4°C° 0.3 mm 2 m/s 747 mmHg 96%
08:00 +3°C° 0.3 mm 3 m/s 747 mmHg 96%
09:00 +2°C° 1.1 mm 3 m/s 748 mmHg 96%
10:00 +2°C° 1.1 mm 3 m/s 748 mmHg 96%
11:00 0°C° 1.1 mm 4 m/s 749 mmHg 95%
12:00 +2°C° 0.7 mm 3 m/s 749 mmHg 91%
13:00 +3°C° 0.7 mm 3 m/s 749 mmHg 86%
14:00 +4°C° 0.7 mm 3 m/s 750 mmHg 81%
15:00 +4°C° 0.1 mm 3 m/s 750 mmHg 81%
16:00 +4°C° 0.1 mm 3 m/s 750 mmHg 81%
17:00 +4°C° 0.1 mm 3 m/s 751 mmHg 82%
18:00 +3°C° 0 mm 3 m/s 751 mmHg 86%
19:00 +3°C° 0 mm 2 m/s 752 mmHg 89%
20:00 +2°C° 0 mm 2 m/s 752 mmHg 93%
21:00 +1°C° 0 mm 2 m/s 752 mmHg 93%
22:00 +1°C° 0 mm 2 m/s 753 mmHg 94%
23:00 -1°C° 0 mm 2 m/s 753 mmHg 94%

Mâine, 9 Mai, Duminică

Timp Temperatura Precipitaţii Vânt Presiune Umiditate
00:00 -1°C° 0 mm 2 m/s 753 mmHg 93%
01:00 -1°C° 0 mm 2 m/s 754 mmHg 92%
02:00 -1°C° 0 mm 3 m/s 754 mmHg 91%
03:00 -1°C° 0 mm 2 m/s 755 mmHg 91%
04:00 -1°C° 0 mm 2 m/s 755 mmHg 92%
05:00 -1°C° 0 mm 2 m/s 756 mmHg 92%
06:00 +2°C° 0 mm 2 m/s 756 mmHg 84%
07:00 +3°C° 0 mm 3 m/s 756 mmHg 75%
08:00 +5°C° 0 mm 3 m/s 757 mmHg 67%
09:00 +7°C° 0 mm 3 m/s 757 mmHg 61%
10:00 +9°C° 0 mm 3 m/s 757 mmHg 54%
11:00 +10°C° 0 mm 3 m/s 758 mmHg 48%
12:00 +11°C° 0 mm 3 m/s 758 mmHg 46%
13:00 +11°C° 0 mm 3 m/s 758 mmHg 44%
14:00 +12°C° 0 mm 3 m/s 758 mmHg 42%
15:00 +12°C° 0 mm 3 m/s 758 mmHg 43%
16:00 +12°C° 0 mm 3 m/s 758 mmHg 44%
17:00 +13°C° 0 mm 2 m/s 758 mmHg 45%
18:00 +10°C° 0 mm 2 m/s 759 mmHg 53%
19:00 +8°C° 0 mm 2 m/s 759 mmHg 61%
20:00 +7°C° 0 mm 2 m/s 759 mmHg 70%
21:00 +6°C° 0 mm 2 m/s 759 mmHg 72%
22:00 +6°C° 0 mm 2 m/s 759 mmHg 74%
23:00 +6°C° 0 mm 2 m/s 759 mmHg 77%

Poimâine, 10 Mai, Luni

Timp Temperatura Precipitaţii Vânt Presiune Umiditate
00:00 +5°C° 0.1 mm 3 m/s 759 mmHg 80%
01:00 +5°C° 0.1 mm 3 m/s 759 mmHg 83%
02:00 +5°C° 0.1 mm 4 m/s 759 mmHg 86%
03:00 +5°C° 0.4 mm 4 m/s 759 mmHg 87%
04:00 +6°C° 0.4 mm 4 m/s 759 mmHg 88%
05:00 +6°C° 0.4 mm 4 m/s 758 mmHg 89%
06:00 +7°C° 0 mm 4 m/s 759 mmHg 87%
07:00 +7°C° 0 mm 4 m/s 759 mmHg 86%
08:00 +8°C° 0 mm 4 m/s 759 mmHg 85%
09:00 +11°C° 0 mm 4 m/s 759 mmHg 77%
10:00 +13°C° 0 mm 4 m/s 760 mmHg 69%
11:00 +17°C° 0 mm 4 m/s 760 mmHg 62%
12:00 +18°C° 0 mm 4 m/s 760 mmHg 57%
13:00 +20°C° 0 mm 5 m/s 760 mmHg 53%
14:00 +21°C° 0 mm 5 m/s 760 mmHg 49%
15:00 +21°C° 0 mm 4 m/s 760 mmHg 52%
16:00 +20°C° 0 mm 4 m/s 760 mmHg 54%
17:00 +20°C° 0 mm 4 m/s 760 mmHg 57%
18:00 +19°C° 0 mm 4 m/s 761 mmHg 63%
19:00 +17°C° 0 mm 3 m/s 761 mmHg 69%
20:00 +16°C° 0 mm 3 m/s 761 mmHg 74%
21:00 +14°C° 0 mm 3 m/s 761 mmHg 76%
22:00 +14°C° 0 mm 3 m/s 762 mmHg 77%
23:00 +13°C° 0 mm 4 m/s 762 mmHg 79%

11 Mai, Marţi

Timp Temperatura Precipitaţii Vânt Presiune Umiditate
00:00 +13°C° 0 mm 4 m/s 762 mmHg 80%
01:00 +12°C° 0 mm 3 m/s 762 mmHg 82%
02:00 +11°C° 0 mm 3 m/s 762 mmHg 83%
03:00 +11°C° 0 mm 3 m/s 762 mmHg 83%
04:00 +11°C° 0 mm 3 m/s 762 mmHg 84%
05:00 +10°C° 0 mm 3 m/s 763 mmHg 84%
06:00 +12°C° 0 mm 4 m/s 763 mmHg 75%
07:00 +13°C° 0 mm 4 m/s 763 mmHg 67%
08:00 +15°C° 0 mm 5 m/s 763 mmHg 58%
09:00 +17°C° 0 mm 5 m/s 763 mmHg 53%
10:00 +19°C° 0 mm 5 m/s 763 mmHg 49%
11:00 +20°C° 0 mm 5 m/s 763 mmHg 44%
12:00 +21°C° 0 mm 5 m/s 763 mmHg 43%
13:00 +21°C° 0 mm 5 m/s 763 mmHg 42%
14:00 +22°C° 0 mm 5 m/s 762 mmHg 40%
15:00 +22°C° 0 mm 5 m/s 762 mmHg 43%
16:00 +21°C° 0 mm 4 m/s 762 mmHg 46%
17:00 +21°C° 0 mm 4 m/s 762 mmHg 49%
18:00 +19°C° 0 mm 4 m/s 762 mmHg 57%
19:00 +17°C° 0 mm 3 m/s 762 mmHg 65%
20:00 +14°C° 0 mm 3 m/s 762 mmHg 72%
21:00 +13°C° 0 mm 3 m/s 762 mmHg 76%
22:00 +12°C° 0 mm 3 m/s 762 mmHg 79%
23:00 +11°C° 0 mm 3 m/s 763 mmHg 82%

12 Mai, Miercuri

Timp Temperatura Precipitaţii Vânt Presiune Umiditate
00:00 +12°C° 0 mm 2 m/s 763 mmHg 85%
01:00 +10°C° 0 mm 2 m/s 763 mmHg 88%
02:00 +10°C° 0 mm 2 m/s 763 mmHg 91%
03:00 +10°C° 0 mm 2 m/s 763 mmHg 90%
04:00 +10°C° 0 mm 2 m/s 763 mmHg 90%
05:00 +10°C° 0 mm 2 m/s 763 mmHg 89%
06:00 +13°C° 0 mm 2 m/s 763 mmHg 80%
07:00 +14°C° 0 mm 3 m/s 763 mmHg 70%
08:00 +17°C° 0 mm 3 m/s 763 mmHg 61%
09:00 +19°C° 0 mm 3 m/s 763 mmHg 55%
10:00 +20°C° 0 mm 4 m/s 763 mmHg 50%
11:00 +21°C° 0 mm 4 m/s 763 mmHg 44%
12:00 +22°C° 0 mm 4 m/s 762 mmHg 43%
13:00 +22°C° 0 mm 4 m/s 762 mmHg 41%
14:00 +22°C° 0 mm 4 m/s 762 mmHg 39%
15:00 +22°C° 0 mm 3 m/s 762 mmHg 42%
16:00 +22°C° 0 mm 3 m/s 762 mmHg 46%
17:00 +21°C° 0 mm 3 m/s 762 mmHg 49%
18:00 +20°C° 0 mm 2 m/s 762 mmHg 57%
19:00 +18°C° 0 mm 2 m/s 762 mmHg 66%
20:00 +16°C° 0 mm 2 m/s 762 mmHg 75%
21:00 +15°C° 0 mm 2 m/s 762 mmHg 76%
22:00 +14°C° 0 mm 2 m/s 762 mmHg 78%
23:00 +13°C° 0 mm 2 m/s 762 mmHg 80%

13 Mai, Joi

Timp Temperatura Precipitaţii Vânt Presiune Umiditate
00:00 +13°C° 0 mm 2 m/s 762 mmHg 84%
01:00 +13°C° 0 mm 2 m/s 762 mmHg 87%
02:00 +13°C° 0 mm 1 m/s 762 mmHg 90%
03:00 +13°C° 0 mm 1 m/s 762 mmHg 90%
04:00 +13°C° 0 mm 1 m/s 762 mmHg 90%
05:00 +14°C° 0 mm 1 m/s 762 mmHg 90%
06:00 +16°C° 0 mm 2 m/s 762 mmHg 82%
07:00 +18°C° 0 mm 3 m/s 762 mmHg 74%
08:00 +20°C° 0 mm 3 m/s 762 mmHg 66%
09:00 +21°C° 0 mm 3 m/s 761 mmHg 60%
10:00 +22°C° 0 mm 4 m/s 761 mmHg 55%
11:00 +23°C° 0 mm 4 m/s 761 mmHg 50%
12:00 +25°C° 0 mm 4 m/s 760 mmHg 49%
13:00 +25°C° 0 mm 4 m/s 760 mmHg 48%
14:00 +25°C° 0 mm 5 m/s 759 mmHg 47%
15:00 +25°C° 0 mm 4 m/s 759 mmHg 49%
16:00 +25°C° 0 mm 4 m/s 758 mmHg 51%
17:00 +24°C° 0 mm 3 m/s 758 mmHg 53%
18:00 +21°C° 0.1 mm 3 m/s 758 mmHg 61%
19:00 +19°C° 0.1 mm 3 m/s 758 mmHg 69%
20:00 +17°C° 0.1 mm 3 m/s 758 mmHg 76%
21:00 +17°C° 0.2 mm 2 m/s 758 mmHg 82%
22:00 +16°C° 0.2 mm 2 m/s 758 mmHg 88%
23:00 +15°C° 0.2 mm 2 m/s 758 mmHg 94%
Arată mai mult

Formular de consimțământ

Meteoprog și furnizorii noștri de servicii pot stoca și accesa date personale, precum cookies, identificatori de dispozitiv sau alte tehnologii similare pe dispozitivul dumneavoastră și procesa astfel de date pentru a personaliza conținutul și reclamele, dar și pentru a oferi caracteristici de social media și pentru a analiza traficul.

  • Stocarea și/sau accesarea informațiilor pe dispozitivul dumneavoastră

    Cookies, identificatori de dispozitiv sau alte informații pot fi stocate sau accesate pe dispozitiv în scopurile indicate mai sus.

  • Reclame și conținut personalizat, evaluarea reclamelor și a conținutului, informații despre audiențe și dezvoltarea produselor

    Reclamele și conținutul pot fi personalizate pe baza unui profil. Pot fi adăugate date suplimentare pentru a personaliza mai bine reclamele și conținutul. Performanța reclamelor și conținutului poate fi măsurată. Pot fi obținute informații despre utilizatorii care au văzut reclamele și conținutul. Aceste date pot fi utilizate pentru a dezvolta sau îmbunătăți experiența utilizatorilor, sistemele și software-ul.

Dând clic pe ‘Sunt de acord’, permiteți utilizarea cookie-urilor menționate, a identificatorilor de dispozitiv, balizelor web sau altor tehnologii similare. Setările pot fi modificate din browser-ul dispozitivului dumneavoastră.

În anumite scopuri, interesele legitime pot prima asupra consimțământului. Puteți citi mai multe informații în acest sens în Politica privind Confidențialitatea Datelor și Cookie.